INTELSAT 31 (IS-31)

Last updated on Tue Jul 01 2025 00:02:47 GMT+0000 (Coordinated Universal Time)

1 41581U 16035A 25181.54902762 -.00000151 00000+0 00000+0 0 9992 2 41581 0.0152 311.5512 0001736 292.2704 137.6143 1.00270887 33150
UTC large
Height (km)
Speed (km/s)
/
Latitude / Longitude
Inclination (degrees)
Orbital Period (minutes)
Azimuth
Elevation
Range (km)
Doppler Factor

Next 0 passes for location: London (51.5072 / 0.1276)

Sorry there are no passes over London.